QPF
0.00 0.00 0.00 0.01 0.01 0.01 0.01 0.01 0.01 0.01 0.01 0.01 0.01 0.01 0.00 0.00 0.01 0.01 0.00 0.00 0.00 0.00 0.00 0.01 0.05 0.08 0.08 0.07 0.04 0.05 0.06 0.07 0.09 0.12 0.14 0.15 0.17 0.17 0.16 0.12 0.09 0.15 0.16 0.12
0.00 0.00 0.00 0.00 0.01 0.01 0.01 0.01 0.00 0.01 0.01 0.02 0.02 0.02 0.01 0.01 0.01 0.02 0.02 0.01 0.01 0.01 0.01 0.02 0.03 0.04 0.06 0.08 0.07 0.06 0.06 0.06 0.08 0.11 0.14 0.13 0.16 0.16 0.16 0.14 0.10 0.10 0.18 0.18
0.01 0.00 0.00 0.00 0.00 0.00 0.01 0.01 0.00 0.01 0.02 0.02 0.03 0.03 0.02 0.02 0.02 0.04 0.05 0.05 0.03 0.02 0.02 0.03 0.03 0.02 0.02 0.03 0.04 0.05 0.05 0.05 0.06 0.08 0.12 0.13 0.16 0.18 0.17 0.17 0.12 0.08 0.10 0.15
0.00 0.00 0.00 0.00 0.00 0.00 0.01 0.00 0.00 0.01 0.02 0.03 0.04 0.05 0.05 0.04 0.04 0.04 0.06 0.07 0.06 0.04 0.04 0.04 0.03 0.03 0.03 0.03 0.04 0.04 0.04 0.05 0.05 0.07 0.10 0.11 0.14 0.16 0.16 0.15 0.13 0.09 0.08 0.09
0.00 0.00 0.00 0.00 0.00 0.00 0.00 0.00 0.00 0.01 0.02 0.03 0.04 0.07 0.06 0.05 0.04 0.03 0.04 0.04 0.04 0.04 0.04 0.05 0.04 0.04 0.05 0.04 0.04 0.05 0.05 0.05 0.05 0.06 0.08 0.09 0.11 0.12 0.12 0.14 0.15 0.14 0.11 0.09
0.01 0.01 0.01 0.00 0.00 0.00 0.01 0.01 0.01 0.01 0.02 0.03 0.03 0.06 0.07 0.06 0.05 0.04 0.04 0.04 0.03 0.03 0.04 0.05 0.05 0.05 0.07 0.06 0.06 0.06 0.06 0.05 0.05 0.06 0.07 0.08 0.08 0.08 0.08 0.09 0.15 0.17 0.15 0.13
0.01 0.01 0.01 0.00 0.01 0.00 0.01 0.02 0.02 0.02 0.02 0.02 0.01 0.02 0.04 0.04 0.04 0.04 0.04 0.05 0.05 0.04 0.04 0.04 0.04 0.05 0.06 0.07 0.09 0.09 0.08 0.07 0.06 0.06 0.06 0.07 0.07 0.07 0.07 0.06 0.08 0.13 0.15 0.14
0.01 0.02 0.01 0.01 0.01 0.01 0.01 0.02 0.03 0.02 0.02 0.01 0.01 0.02 0.02 0.02 0.02 0.02 0.03 0.03 0.04 0.05 0.04 0.04 0.04 0.04 0.03 0.03 0.06 0.09 0.09 0.09 0.07 0.07 0.07 0.07 0.08 0.09 0.08 0.07 0.06 0.06 0.10 0.12
0.00 0.01 0.02 0.03 0.01 0.01 0.01 0.01 0.02 0.03 0.02 0.01 0.01 0.01 0.01 0.01 0.01 0.01 0.02 0.02 0.04 0.05 0.05 0.05 0.05 0.04 0.03 0.02 0.03 0.07 0.08 0.10 0.11 0.10 0.09 0.08 0.09 0.10 0.09 0.06 0.05 0.05 0.06 0.07
0.00 0.01 0.02 0.03 0.04 0.02 0.02 0.02 0.04 0.04 0.03 0.02 0.02 0.02 0.02 0.01 0.01 0.02 0.03 0.03 0.03 0.04 0.05 0.06 0.06 0.05 0.04 0.03 0.05 0.06 0.08 0.09 0.10 0.10 0.10 0.09 0.09 0.10 0.11 0.09 0.06 0.05 0.06 0.07
0.00 0.00 0.00 0.01 0.03 0.02 0.02 0.02 0.03 0.03 0.02 0.01 0.01 0.01 0.01 0.00 0.00 0.01 0.02 0.02 0.03 0.03 0.04 0.05 0.06 0.06 0.04 0.04 0.05 0.07 0.08 0.07 0.06 0.06 0.07 0.09 0.10 0.12 0.13 0.13 0.09 0.07 0.08 0.08
0.00 0.00 0.00 0.00 0.01 0.01 0.01 0.02 0.02 0.02 0.01 0.01 0.01 0.01 0.00 0.00 0.00 0.00 0.01 0.02 0.02 0.02 0.02 0.03 0.04 0.05 0.05 0.04 0.05 0.05 0.08 0.09 0.07 0.05 0.05 0.06 0.07 0.11 0.14 0.17 0.15 0.11 0.09 0.08
0.00 0.00 0.00 0.00 0.00 0.00 0.00 0.01 0.01 0.02 0.02 0.01 0.01 0.01 0.01 0.00 0.00 0.00 0.00 0.01 0.01 0.02 0.02 0.03 0.03 0.04 0.05 0.06 0.06 0.04 0.06 0.10 0.08 0.06 0.06 0.06 0.06 0.09 0.09 0.13 0.15 0.13 0.10 0.08
0.01 0.01 0.00 0.00 0.00 0.00 0.00 0.00 0.00 0.01 0.01 0.01 0.01 0.01 0.00 0.00 0.00 0.01 0.00 0.00 0.00 0.01 0.02 0.03 0.03 0.03 0.04 0.06 0.07 0.05 0.04 0.07 0.08 0.07 0.07 0.06 0.06 0.08 0.09 0.11 0.12 0.11 0.10 0.10
0.02 0.02 0.01 0.00 0.00 0.00 0.00 0.00 0.00 0.01 0.00 0.01 0.01 0.00 0.00 0.00 0.00 0.01 0.01 0.01 0.01 0.01 0.02 0.03 0.03 0.03 0.03 0.04 0.06 0.05 0.03 0.04 0.06 0.05 0.06 0.06 0.06 0.08 0.09 0.09 0.11 0.09 0.08 0.06
0.03 0.03 0.01 0.01 0.00 0.00 0.00 0.00 0.00 0.00 0.00 0.00 0.00 0.00 0.00 0.00 0.00 0.01 0.01 0.01 0.01 0.01 0.02 0.02 0.03 0.03 0.03 0.04 0.06 0.07 0.05 0.04 0.05 0.05 0.06 0.07 0.07 0.09 0.08 0.07 0.08 0.09 0.10 0.09
0.03 0.03 0.03 0.02 0.00 0.01 0.01 0.00 0.00 0.01 0.00 0.00 0.01 0.01 0.01 0.00 0.00 0.00 0.00 0.01 0.01 0.02 0.02 0.02 0.02 0.03 0.04 0.05 0.06 0.08 0.08 0.07 0.06 0.06 0.06 0.07 0.07 0.08 0.08 0.06 0.09 0.11 0.12 0.14
0.02 0.02 0.04 0.03 0.01 0.01 0.00 0.00 0.00 0.01 0.01 0.00 0.00 0.00 0.00 0.00 0.00 0.00 0.00 0.00 0.01 0.02 0.02 0.02 0.03 0.03 0.04 0.05 0.04 0.06 0.09 0.10 0.08 0.08 0.08 0.08 0.09 0.09 0.09 0.10 0.10 0.09 0.11 0.13
0.01 0.02 0.05 0.05 0.03 0.01 0.00 0.00 0.00 0.00 0.00 0.00 0.00 0.00 0.00 0.00 0.00 0.00 0.00 0.00 0.01 0.01 0.02 0.02 0.03 0.03 0.04 0.05 0.05 0.06 0.10 0.10 0.09 0.10 0.10 0.10 0.10 0.10 0.10 0.08 0.06 0.07 0.08 0.09
0.01 0.03 0.06 0.08 0.04 0.01 0.00 0.00 0.00 0.00 0.00 0.00 0.00 0.00 0.00 0.00 0.01 0.00 0.00 0.00 0.01 0.01 0.02 0.02 0.03 0.03 0.05 0.07 0.06 0.06 0.06 0.06 0.08 0.09 0.10 0.09 0.09 0.08 0.07 0.06 0.07 0.07 0.06 0.07
0.02 0.04 0.06 0.06 0.05 0.01 0.00 0.00 0.00 0.00 0.00 0.00 0.00 0.00 0.00 0.00 0.01 0.00 0.00 0.01 0.01 0.01 0.01 0.02 0.02 0.03 0.05 0.07 0.05 0.06 0.05 0.05 0.06 0.07 0.08 0.09 0.09 0.09 0.08 0.07 0.07 0.08 0.08 0.08
0.00 0.01 0.02 0.03 0.05 0.02 0.00 0.00 0.00 0.00 0.00 0.00 0.00 0.00 0.00 0.00 0.00 0.00 0.00 0.00 0.01 0.01 0.01 0.01 0.01 0.03 0.05 0.05 0.05 0.06 0.06 0.05 0.05 0.05 0.06 0.06 0.07 0.07 0.07 0.07 0.07 0.08 0.09 0.09
0.00 0.00 0.00 0.01 0.01 0.00 0.00 0.00 0.00 0.00 0.00 0.00 0.00 0.00 0.00 0.00 0.00 0.00 0.00 0.00 0.01 0.01 0.01 0.01 0.01 0.02 0.04 0.05 0.04 0.06 0.07 0.05 0.04 0.04 0.04 0.04 0.05 0.05 0.06 0.07 0.08 0.08 0.08 0.08
0.00 0.00 0.00 0.00 0.00 0.00 0.00 0.00 0.00 0.00 0.00 0.00 0.00 0.00 0.00 0.00 0.00 0.00 0.00 0.00 0.01 0.01 0.01 0.01 0.01 0.02 0.03 0.04 0.05 0.06 0.05 0.04 0.03 0.03 0.04 0.04 0.05 0.05 0.06 0.07 0.07 0.08 0.09 0.09
0.00 0.00 0.00 0.00 0.00 0.00 0.00 0.00 0.00 0.00 0.00 0.00 0.00 0.00 0.00 0.00 0.00 0.00 0.00 0.01 0.01 0.01 0.01 0.02 0.02 0.02 0.04 0.04 0.04 0.04 0.03 0.03 0.04 0.04 0.04 0.05 0.04 0.05 0.05 0.05 0.06 0.08 0.09 0.08
0.00 0.00 0.00 0.01 0.01 0.01 0.01 0.00 0.00 0.00 0.00 0.00 0.00 0.00 0.00 0.00 0.00 0.00 0.00 0.00 0.01 0.01 0.01 0.01 0.02 0.02 0.03 0.03 0.03 0.03 0.02 0.02 0.04 0.04 0.04 0.05 0.05 0.04 0.05 0.05 0.06 0.09 0.11 0.09
MSLP
1014.60 1014.67 1014.77 1014.87 1014.99 1015.09 1015.17 1015.22 1015.22 1015.17 1015.06 1014.90 1014.69 1014.43 1014.15 1013.87 1013.61 1013.40 1013.26 1013.20 1013.23 1013.34 1013.53 1013.76 1014.02 1014.26 1014.47 1014.63 1014.73 1014.75 1014.72 1014.62 1014.48 1014.31 1014.10 1013.86 1013.59 1013.30 1012.97 1012.63 1012.25 1011.85 1011.43 1010.97
1014.86 1014.96 1015.09 1015.23 1015.37 1015.49 1015.57 1015.60 1015.56 1015.44 1015.25 1014.99 1014.67 1014.33 1013.99 1013.67 1013.41 1013.22 1013.11 1013.10 1013.18 1013.33 1013.53 1013.76 1013.98 1014.18 1014.34 1014.45 1014.51 1014.51 1014.46 1014.36 1014.23 1014.05 1013.83 1013.57 1013.27 1012.92 1012.54 1012.14 1011.71 1011.28 1010.86 1010.42
1015.15 1015.28 1015.44 1015.61 1015.78 1015.92 1016.01 1016.00 1015.90 1015.70 1015.40 1015.02 1014.60 1014.16 1013.74 1013.39 1013.12 1012.96 1012.91 1012.96 1013.09 1013.29 1013.51 1013.73 1013.93 1014.08 1014.18 1014.24 1014.25 1014.22 1014.16 1014.07 1013.94 1013.78 1013.56 1013.28 1012.94 1012.54 1012.10 1011.63 1011.15 1010.69 1010.25 1009.83
1015.41 1015.56 1015.75 1015.96 1016.16 1016.32 1016.40 1016.37 1016.21 1015.91 1015.50 1015.00 1014.45 1013.90 1013.41 1013.02 1012.75 1012.62 1012.63 1012.75 1012.96 1013.20 1013.46 1013.67 1013.84 1013.95 1014.00 1014.00 1013.97 1013.92 1013.86 1013.78 1013.67 1013.52 1013.31 1013.02 1012.65 1012.21 1011.70 1011.17 1010.65 1010.14 1009.68 1009.26
1015.57 1015.75 1015.97 1016.21 1016.45 1016.64 1016.72 1016.67 1016.46 1016.08 1015.56 1014.94 1014.27 1013.62 1013.05 1012.61 1012.34 1012.24 1012.30 1012.49 1012.76 1013.06 1013.35 1013.58 1013.73 1013.81 1013.82 1013.79 1013.73 1013.66 1013.60 1013.53 1013.44 1013.31 1013.11 1012.82 1012.42 1011.94 1011.39 1010.81 1010.23 1009.69 1009.20 1008.77
1015.60 1015.80 1016.06 1016.35 1016.63 1016.86 1016.97 1016.92 1016.68 1016.24 1015.64 1014.91 1014.13 1013.38 1012.72 1012.23 1011.93 1011.84 1011.94 1012.18 1012.51 1012.87 1013.20 1013.45 1013.61 1013.68 1013.67 1013.62 1013.54 1013.47 1013.42 1013.36 1013.29 1013.17 1012.98 1012.67 1012.26 1011.75 1011.16 1010.53 1009.91 1009.33 1008.81 1008.35
1015.51 1015.73 1016.03 1016.37 1016.72 1017.00 1017.16 1017.14 1016.90 1016.44 1015.78 1014.97 1014.10 1013.24 1012.50 1011.93 1011.59 1011.49 1011.59 1011.86 1012.24 1012.64 1013.01 1013.30 1013.48 1013.57 1013.57 1013.52 1013.45 1013.38 1013.33 1013.29 1013.22 1013.10 1012.90 1012.58 1012.15 1011.60 1010.97 1010.31 1009.66 1009.04 1008.49 1007.99
1015.32 1015.58 1015.93 1016.34 1016.76 1017.12 1017.35 1017.39 1017.18 1016.71 1016.02 1015.16 1014.20 1013.26 1012.41 1011.76 1011.35 1011.20 1011.29 1011.56 1011.95 1012.39 1012.80 1013.13 1013.36 1013.48 1013.51 1013.49 1013.44 1013.39 1013.35 1013.30 1013.23 1013.09 1012.86 1012.51 1012.04 1011.46 1010.80 1010.11 1009.43 1008.79 1008.21 1007.67
1015.09 1015.40 1015.80 1016.29 1016.79 1017.24 1017.56 1017.66 1017.50 1017.05 1016.35 1015.45 1014.43 1013.40 1012.46 1011.72 1011.22 1010.99 1011.03 1011.28 1011.67 1012.12 1012.57 1012.95 1013.24 1013.42 1013.51 1013.53 1013.51 1013.48 1013.44 1013.38 1013.27 1013.10 1012.82 1012.43 1011.91 1011.29 1010.60 1009.88 1009.18 1008.52 1007.91 1007.34
1014.87 1015.23 1015.71 1016.26 1016.84 1017.37 1017.76 1017.93 1017.82 1017.40 1016.70 1015.77 1014.70 1013.60 1012.57 1011.73 1011.15 1010.84 1010.81 1011.01 1011.39 1011.85 1012.34 1012.77 1013.12 1013.37 1013.53 1013.60 1013.62 1013.61 1013.56 1013.48 1013.33 1013.10 1012.76 1012.30 1011.73 1011.06 1010.34 1009.60 1008.88 1008.21 1007.59 1006.99
1014.71 1015.12 1015.65 1016.26 1016.89 1017.47 1017.91 1018.12 1018.03 1017.63 1016.93 1015.99 1014.88 1013.73 1012.64 1011.73 1011.06 1010.68 1010.59 1010.76 1011.11 1011.59 1012.10 1012.59 1013.00 1013.32 1013.55 1013.68 1013.74 1013.74 1013.69 1013.56 1013.36 1013.07 1012.66 1012.13 1011.49 1010.78 1010.02 1009.26 1008.53 1007.86 1007.23 1006.63
1014.58 1015.04 1015.60 1016.23 1016.88 1017.46 1017.90 1018.10 1018.01 1017.61 1016.90 1015.94 1014.83 1013.65 1012.54 1011.59 1010.89 1010.47 1010.35 1010.50 1010.85 1011.33 1011.88 1012.42 1012.89 1013.27 1013.56 1013.74 1013.83 1013.84 1013.76 1013.61 1013.35 1012.99 1012.50 1011.91 1011.22 1010.46 1009.67 1008.89 1008.16 1007.48 1006.86 1006.25
1014.48 1014.95 1015.51 1016.12 1016.72 1017.25 1017.62 1017.77 1017.63 1017.20 1016.48 1015.52 1014.42 1013.27 1012.18 1011.25 1010.57 1010.18 1010.07 1010.23 1010.60 1011.11 1011.69 1012.27 1012.79 1013.23 1013.55 1013.76 1013.87 1013.88 1013.78 1013.59 1013.28 1012.86 1012.32 1011.67 1010.93 1010.13 1009.32 1008.53 1007.78 1007.11 1006.49 1005.89
1014.34 1014.81 1015.32 1015.85 1016.35 1016.76 1017.01 1017.05 1016.83 1016.34 1015.60 1014.66 1013.60 1012.53 1011.53 1010.70 1010.11 1009.80 1009.76 1009.98 1010.40 1010.96 1011.57 1012.18 1012.73 1013.19 1013.53 1013.76 1013.86 1013.86 1013.74 1013.51 1013.16 1012.70 1012.12 1011.43 1010.66 1009.84 1009.00 1008.20 1007.45 1006.77 1006.14 1005.55
1014.13 1014.54 1014.97 1015.37 1015.71 1015.95 1016.04 1015.93 1015.60 1015.04 1014.29 1013.40 1012.43 1011.48 1010.64 1009.97 1009.55 1009.38 1009.47 1009.80 1010.29 1010.90 1011.55 1012.17 1012.73 1013.18 1013.52 1013.73 1013.81 1013.79 1013.64 1013.38 1013.01 1012.52 1011.92 1011.22 1010.43 1009.60 1008.76 1007.94 1007.18 1006.48 1005.85 1005.25
1013.81 1014.13 1014.42 1014.66 1014.81 1014.86 1014.75 1014.48 1014.03 1013.42 1012.68 1011.86 1011.03 1010.26 1009.62 1009.18 1008.96 1008.99 1009.25 1009.70 1010.29 1010.95 1011.63 1012.25 1012.79 1013.21 1013.51 1013.69 1013.74 1013.68 1013.51 1013.24 1012.85 1012.36 1011.75 1011.05 1010.27 1009.43 1008.58 1007.75 1006.97 1006.25 1005.60 1004.98
1013.35 1013.55 1013.69 1013.74 1013.70 1013.54 1013.25 1012.84 1012.29 1011.65 1010.95 1010.24 1009.58 1009.02 1008.63 1008.44 1008.47 1008.72 1009.15 1009.74 1010.42 1011.13 1011.81 1012.42 1012.91 1013.28 1013.53 1013.65 1013.65 1013.56 1013.37 1013.08 1012.70 1012.21 1011.62 1010.94 1010.17 1009.34 1008.48 1007.64 1006.83 1006.08 1005.39 1004.75
1012.73 1012.80 1012.78 1012.66 1012.44 1012.11 1011.68 1011.16 1010.57 1009.94 1009.32 1008.75 1008.28 1007.96 1007.82 1007.88 1008.15 1008.60 1009.21 1009.91 1010.66 1011.40 1012.07 1012.63 1013.07 1013.37 1013.55 1013.60 1013.56 1013.44 1013.23 1012.94 1012.56 1012.10 1011.53 1010.87 1010.11 1009.29 1008.43 1007.57 1006.74 1005.95 1005.23 1004.56
1011.96 1011.90 1011.74 1011.48 1011.12 1010.68 1010.17 1009.61 1009.04 1008.48 1007.98 1007.57 1007.31 1007.21 1007.30 1007.59 1008.06 1008.68 1009.41 1010.19 1010.98 1011.71 1012.34 1012.85 1013.21 1013.44 1013.55 1013.55 1013.46 1013.31 1013.09 1012.80 1012.45 1012.00 1011.46 1010.82 1010.09 1009.27 1008.41 1007.53 1006.67 1005.86 1005.10 1004.40
1011.03 1010.85 1010.59 1010.24 1009.82 1009.35 1008.84 1008.32 1007.82 1007.38 1007.03 1006.80 1006.73 1006.83 1007.11 1007.57 1008.18 1008.91 1009.70 1010.52 1011.29 1011.99 1012.56 1013.00 1013.30 1013.46 1013.51 1013.46 1013.35 1013.18 1012.95 1012.68 1012.34 1011.92 1011.40 1010.78 1010.06 1009.26 1008.39 1007.50 1006.62 1005.78 1005.00 1004.28
1009.94 1009.69 1009.38 1009.01 1008.60 1008.16 1007.73 1007.32 1006.96 1006.68 1006.50 1006.46 1006.56 1006.82 1007.23 1007.80 1008.48 1009.24 1010.03 1010.81 1011.54 1012.17 1012.68 1013.04 1013.28 1013.39 1013.39 1013.32 1013.19 1013.02 1012.80 1012.54 1012.22 1011.81 1011.31 1010.71 1010.01 1009.21 1008.35 1007.46 1006.57 1005.72 1004.93 1004.20
1008.72 1008.44 1008.13 1007.80 1007.47 1007.14 1006.85 1006.61 1006.44 1006.35 1006.36 1006.48 1006.72 1007.09 1007.58 1008.18 1008.85 1009.58 1010.31 1011.02 1011.67 1012.21 1012.64 1012.94 1013.13 1013.20 1013.19 1013.11 1012.98 1012.82 1012.61 1012.37 1012.05 1011.67 1011.18 1010.59 1009.90 1009.11 1008.26 1007.38 1006.50 1005.66 1004.88 1004.16
1007.43 1007.16 1006.90 1006.66 1006.46 1006.30 1006.20 1006.17 1006.20 1006.31 1006.49 1006.76 1007.11 1007.54 1008.04 1008.62 1009.24 1009.88 1010.51 1011.11 1011.65 1012.10 1012.45 1012.70 1012.85 1012.90 1012.89 1012.82 1012.70 1012.55 1012.36 1012.13 1011.82 1011.44 1010.97 1010.39 1009.71 1008.94 1008.12 1007.26 1006.41 1005.60 1004.84 1004.14
1006.16 1005.94 1005.77 1005.65 1005.61 1005.64 1005.75 1005.93 1006.18 1006.47 1006.81 1007.19 1007.61 1008.06 1008.54 1009.05 1009.57 1010.09 1010.59 1011.07 1011.49 1011.85 1012.13 1012.33 1012.45 1012.51 1012.50 1012.44 1012.34 1012.20 1012.02 1011.79 1011.49 1011.12 1010.65 1010.09 1009.43 1008.69 1007.90 1007.09 1006.28 1005.51 1004.78 1004.11
1005.04 1004.89 1004.82 1004.85 1004.97 1005.19 1005.50 1005.89 1006.31 1006.77 1007.23 1007.70 1008.15 1008.58 1009.01 1009.42 1009.82 1010.21 1010.58 1010.92 1011.23 1011.50 1011.72 1011.88 1011.98 1012.03 1012.02 1011.98 1011.88 1011.75 1011.57 1011.34 1011.04 1010.66 1010.21 1009.67 1009.04 1008.36 1007.62 1006.86 1006.11 1005.39 1004.70 1004.05
1004.21 1004.15 1004.19 1004.34 1004.62 1005.00 1005.48 1006.02 1006.59 1007.16 1007.71 1008.21 1008.67 1009.07 1009.42 1009.73 1010.00 1010.26 1010.50 1010.72 1010.93 1011.12 1011.27 1011.39 1011.46 1011.50 1011.48 1011.43 1011.33 1011.19 1011.00 1010.75 1010.45 1010.08 1009.64 1009.13 1008.56 1007.93 1007.26 1006.58 1005.90 1005.23 1004.58 1003.96
Thickness
5604 5607 5607 5604 5598 5596 5593 5590 5593 5596 5589 5581 5588 5591 5595 5592 5586 5584 5583 5582 5582 5580 5578 5576 5576 5576 5576 5577 5578 5580 5582 5584 5585 5587 5591 5594 5598 5603 5605 5608 5612 5614 5617 5618
5603 5602 5598 5593 5589 5586 5585 5586 5591 5593 5583 5576 5581 5586 5591 5586 5581 5577 5575 5574 5573 5572 5570 5568 5567 5568 5569 5570 5571 5572 5574 5575 5576 5577 5580 5583 5586 5591 5593 5596 5599 5602 5604 5606
5604 5598 5590 5587 5587 5585 5585 5584 5584 5580 5579 5575 5571 5592 5589 5582 5575 5570 5567 5565 5564 5562 5561 5561 5560 5560 5560 5561 5562 5563 5565 5566 5567 5567 5569 5572 5574 5579 5581 5584 5588 5591 5592 5594
5594 5587 5583 5583 5584 5579 5586 5579 5572 5568 5570 5580 5567 5585 5593 5581 5572 5567 5563 5560 5558 5556 5554 5553 5553 5553 5553 5553 5554 5554 5555 5557 5557 5558 5560 5563 5566 5571 5575 5576 5578 5580 5582 5583
5590 5582 5580 5581 5579 5573 5576 5569 5565 5562 5562 5564 5567 5563 5593 5575 5571 5567 5562 5557 5554 5551 5548 5547 5546 5546 5546 5546 5546 5546 5548 5548 5549 5550 5550 5553 5557 5561 5564 5566 5568 5570 5572 5573
5579 5573 5572 5573 5569 5565 5564 5564 5562 5559 5561 5567 5567 5564 5586 5579 5570 5564 5558 5552 5549 5547 5544 5543 5542 5541 5541 5540 5539 5539 5539 5541 5541 5541 5542 5544 5548 5551 5554 5556 5559 5561 5562 5564
5580 5573 5566 5562 5566 5565 5563 5568 5576 5577 5576 5581 5559 5555 5573 5574 5564 5558 5553 5550 5547 5544 5541 5540 5539 5537 5536 5535 5533 5532 5532 5534 5534 5534 5535 5537 5539 5542 5545 5547 5549 5551 5553 5555
5580 5582 5566 5559 5560 5560 5557 5558 5562 5568 5578 5579 5560 5561 5576 5567 5560 5555 5551 5547 5543 5540 5537 5535 5534 5532 5531 5529 5528 5527 5527 5527 5528 5528 5529 5530 5531 5533 5536 5539 5540 5542 5545 5547
5573 5574 5554 5549 5546 5550 5552 5552 5542 5541 5537 5543 5566 5568 5570 5566 5559 5553 5549 5546 5542 5538 5534 5533 5531 5529 5528 5526 5524 5522 5522 5522 5523 5523 5523 5524 5524 5525 5528 5531 5531 5533 5535 5537
5555 5555 5552 5542 5539 5536 5540 5538 5534 5536 5541 5559 5569 5564 5567 5561 5555 5550 5546 5543 5540 5535 5532 5530 5529 5527 5524 5521 5519 5518 5517 5517 5517 5516 5517 5518 5517 5518 5520 5521 5522 5524 5526 5529
5542 5543 5546 5541 5542 5544 5531 5529 5529 5529 5527 5540 5556 5568 5564 5554 5549 5545 5542 5538 5534 5531 5529 5527 5525 5523 5521 5518 5516 5514 5512 5511 5511 5510 5511 5511 5511 5511 5512 5514 5514 5516 5519 5521
5534 5536 5545 5544 5531 5526 5531 5532 5527 5529 5523 5519 5532 5554 5558 5549 5544 5539 5536 5534 5530 5527 5525 5522 5520 5519 5518 5516 5513 5510 5508 5506 5506 5505 5505 5504 5505 5505 5506 5507 5508 5510 5512 5515
5522 5522 5539 5546 5529 5516 5516 5516 5515 5513 5512 5518 5526 5551 5551 5543 5538 5533 5530 5529 5527 5524 5521 5518 5516 5515 5513 5511 5508 5506 5503 5501 5499 5498 5498 5498 5498 5499 5499 5500 5501 5503 5506 5508
5520 5516 5531 5549 5548 5525 5513 5511 5506 5504 5510 5522 5528 5543 5546 5539 5534 5531 5528 5526 5523 5520 5516 5513 5512 5510 5508 5505 5502 5500 5499 5496 5494 5493 5492 5492 5492 5493 5493 5494 5494 5496 5499 5501
5511 5514 5516 5522 5521 5516 5515 5514 5508 5502 5512 5517 5534 5532 5537 5534 5529 5526 5523 5520 5517 5514 5511 5507 5505 5504 5503 5501 5499 5496 5494 5491 5490 5488 5487 5486 5486 5487 5487 5487 5487 5488 5490 5494
5501 5503 5502 5510 5511 5508 5506 5516 5514 5509 5509 5512 5517 5523 5532 5526 5522 5519 5517 5514 5511 5509 5505 5502 5499 5498 5497 5495 5494 5492 5490 5487 5485 5483 5481 5481 5481 5481 5481 5481 5481 5482 5484 5487
5492 5489 5495 5514 5505 5499 5517 5527 5518 5515 5515 5512 5514 5525 5526 5520 5517 5514 5511 5508 5505 5503 5499 5496 5495 5493 5491 5490 5487 5485 5484 5482 5479 5477 5476 5474 5474 5474 5475 5475 5475 5476 5478 5480
5486 5483 5486 5497 5495 5506 5541 5528 5522 5517 5517 5512 5512 5517 5516 5514 5511 5508 5505 5502 5500 5496 5493 5491 5489 5488 5486 5484 5481 5479 5478 5476 5474 5472 5470 5469 5468 5469 5469 5469 5469 5470 5472 5474
5486 5481 5482 5485 5496 5519 5532 5521 5512 5508 5514 5515 5510 5510 5509 5506 5504 5508 5503 5497 5493 5490 5487 5485 5483 5481 5479 5478 5476 5473 5472 5471 5469 5467 5465 5463 5462 5462 5462 5463 5464 5464 5466 5468
5473 5473 5475 5477 5488 5513 5533 5514 5505 5503 5510 5516 5507 5505 5502 5495 5498 5506 5500 5492 5487 5483 5481 5478 5476 5475 5473 5471 5468 5467 5466 5464 5462 5460 5458 5457 5456 5456 5456 5457 5457 5459 5461 5463
5462 5463 5469 5476 5484 5511 5519 5499 5494 5500 5516 5510 5503 5499 5493 5489 5492 5492 5487 5483 5479 5476 5473 5471 5468 5467 5466 5463 5460 5459 5458 5457 5455 5452 5451 5450 5449 5449 5450 5451 5452 5453 5456 5458
5479 5475 5472 5475 5478 5503 5503 5488 5494 5506 5503 5498 5494 5491 5486 5484 5482 5480 5477 5475 5472 5469 5466 5463 5461 5460 5458 5455 5452 5452 5451 5449 5447 5446 5445 5445 5444 5444 5444 5445 5447 5449 5451 5454
5484 5493 5494 5492 5507 5509 5497 5496 5495 5491 5490 5488 5485 5481 5477 5474 5473 5471 5469 5467 5464 5461 5459 5456 5453 5452 5450 5447 5445 5444 5443 5441 5440 5439 5439 5439 5439 5439 5439 5441 5443 5445 5446 5449
5477 5478 5480 5483 5496 5494 5488 5487 5482 5478 5478 5477 5474 5471 5467 5465 5465 5463 5461 5458 5456 5453 5450 5446 5444 5443 5442 5439 5436 5435 5434 5432 5432 5432 5432 5432 5432 5433 5434 5434 5436 5438 5440 5443
5484 5466 5470 5477 5487 5480 5479 5477 5474 5471 5468 5465 5462 5460 5457 5456 5455 5453 5451 5449 5447 5443 5440 5437 5435 5434 5433 5430 5428 5426 5424 5423 5424 5424 5425 5425 5425 5426 5428 5429 5430 5431 5434 5436
5472 5469 5473 5484 5486 5478 5479 5474 5468 5464 5461 5458 5454 5451 5449 5446 5445 5443 5442 5440 5437 5434 5431 5428 5427 5425 5424 5421 5419 5417 5415 5414 5415 5417 5417 5417 5418 5420 5421 5423 5425 5426 5427 5429